2023/10/08 00:00:00, 3.8,14.0
2023/10/08 00:10:00, 3.9,13.8
2023/10/08 00:20:00, 4.0,13.7
2023/10/08 00:30:00, 4.0,14.0
2023/10/08 00:40:00, 4.2,13.6
2023/10/08 00:50:00, 4.3,13.7
2023/10/08 01:00:00, 4.4,13.6
2023/10/08 01:10:00, 4.4,13.6
2023/10/08 01:20:00, 4.4,13.5
2023/10/08 01:30:00, 4.4,13.7
2023/10/08 01:40:00, 4.7,13.6
2023/10/08 01:50:00, 4.7,13.5
2023/10/08 02:00:00, 4.9,13.6
2023/10/08 02:10:00, 5.0,13.6
2023/10/08 02:20:00, 5.1,13.4
2023/10/08 02:30:00, 5.2,13.3
2023/10/08 02:40:00, 5.3,13.3
2023/10/08 02:50:00, 5.3,13.0
2023/10/08 03:00:00, 5.3,13.2
2023/10/08 03:10:00, 5.3,13.7
2023/10/08 03:20:00, 5.3,13.4
2023/10/08 03:30:00, 5.3,13.3
2023/10/08 03:40:00, 5.3,13.2
2023/10/08 03:50:00, 5.3,13.3
2023/10/08 04:00:00, 5.2,13.2
2023/10/08 04:10:00, 5.1,13.1
2023/10/08 04:20:00, 4.9,13.1
2023/10/08 04:30:00, 4.7,13.2
2023/10/08 04:40:00, 4.6,13.3
2023/10/08 04:50:00, 4.5,13.0
2023/10/08 05:00:00, 4.4,13.0
2023/10/08 05:10:00, 4.4,13.0
2023/10/08 05:20:00, 4.4,13.2
2023/10/08 05:30:00, 4.4,12.9
2023/10/08 05:40:00, 4.4,12.9
2023/10/08 05:50:00, 4.4,12.9
2023/10/08 06:00:00, 4.3,12.9
2023/10/08 06:10:00, 4.2,12.8
2023/10/08 06:20:00, 4.2,13.1
2023/10/08 06:30:00, 4.1,13.3
2023/10/08 06:40:00, 4.1,13.3
2023/10/08 06:50:00, 4.0,13.6
2023/10/08 07:00:00, 3.9,13.7
2023/10/08 07:10:00, 3.9,14.0
2023/10/08 07:20:00, 3.9,14.5
2023/10/08 07:30:00, 3.9,15.0
2023/10/08 07:40:00, 3.9,15.0
2023/10/08 07:50:00, 4.0,15.8
2023/10/08 08:00:00, 4.0,16.3
2023/10/08 08:10:00, 4.0,16.5
2023/10/08 08:20:00, 4.0,17.1
2023/10/08 08:30:00, 4.0,17.2
2023/10/08 08:40:00, 4.0,17.3
2023/10/08 08:50:00, 3.9,17.5
2023/10/08 09:00:00, 3.9,17.4
2023/10/08 09:10:00, 3.7,17.2
2023/10/08 09:20:00, 3.7,17.2
2023/10/08 09:30:00, 3.6,17.3
2023/10/08 09:40:00, 3.6,17.3
2023/10/08 09:50:00, 3.6,17.3
2023/10/08 10:00:00, 3.7,17.4
2023/10/08 10:10:00, 3.7,17.9
2023/10/08 10:20:00, 3.8,17.9
2023/10/08 10:30:00, 3.8,17.9
2023/10/08 10:40:00, 3.9,18.1
2023/10/08 10:50:00, 4.0,18.4
2023/10/08 11:00:00, 3.9,18.7
2023/10/08 11:10:00, 4.0,19.2
2023/10/08 11:20:00, 4.1,20.1
2023/10/08 11:30:00, 4.3,19.9
2023/10/08 11:40:00, 4.2,19.7
2023/10/08 11:50:00, 4.1,19.6
2023/10/08 12:00:00, 4.1,19.2
2023/10/08 12:10:00, 4.1,19.5
2023/10/08 12:20:00, 4.0,20.1
2023/10/08 12:30:00, 4.1,20.0
2023/10/08 12:40:00, 4.1,20.4
2023/10/08 12:50:00, 4.2,20.2
2023/10/08 13:00:00, 4.1,20.1
2023/10/08 13:10:00, 4.2,20.3
2023/10/08 13:20:00, 4.3,20.2
2023/10/08 13:30:00, 4.3,19.9
2023/10/08 13:40:00, 4.3,19.8
2023/10/08 13:50:00, 4.3,19.7
2023/10/08 14:00:00, 4.4,19.5
2023/10/08 14:10:00, 4.4,19.3
2023/10/08 14:20:00, 4.4,19.2
2023/10/08 14:30:00, 4.4,19.1
2023/10/08 14:40:00, 4.4,19.0
2023/10/08 14:50:00, 4.4,19.1
2023/10/08 15:00:00, 4.4,19.0
2023/10/08 15:10:00, 4.3,18.9
2023/10/08 15:20:00, 4.4,18.6
2023/10/08 15:30:00, 4.4,18.7
2023/10/08 15:40:00, 4.4,18.5
2023/10/08 15:50:00, 4.4,18.5
2023/10/08 16:00:00, 4.4,18.4
2023/10/08 16:10:00, 4.3,18.3
2023/10/08 16:20:00, 4.2,18.0
2023/10/08 16:30:00, 4.0,17.9
2023/10/08 16:40:00, 4.1,17.6
2023/10/08 16:50:00, 4.0,17.6
2023/10/08 17:00:00, 4.0,17.5
2023/10/08 17:10:00, 3.9,17.1
2023/10/08 17:20:00, 3.8,17.1
2023/10/08 17:30:00, 3.7,16.8
2023/10/08 17:40:00, 3.6,16.8
2023/10/08 17:50:00, 3.4,16.8
2023/10/08 18:00:00, 3.4,16.4
2023/10/08 18:10:00, 3.2,16.3
2023/10/08 18:20:00, 3.1,16.4
2023/10/08 18:30:00, 2.9,16.2
2023/10/08 18:40:00, 2.9,16.0
2023/10/08 18:50:00, 2.8,16.2
2023/10/08 19:00:00, 2.8,16.0
2023/10/08 19:10:00, 2.8,16.2
2023/10/08 19:20:00, 2.8,16.3
2023/10/08 19:30:00, 2.6,16.6
2023/10/08 19:40:00, 2.7,16.4
2023/10/08 19:50:00, 2.7,16.5
2023/10/08 20:00:00, 2.7,16.5
2023/10/08 20:10:00, 2.9,16.6
2023/10/08 20:20:00, 2.9,16.3
2023/10/08 20:30:00, 3.0,16.1
2023/10/08 20:40:00, 3.1,16.2
2023/10/08 20:50:00, 3.1,15.9
2023/10/08 21:00:00, 3.2,15.9
2023/10/08 21:10:00, 3.2,15.8
2023/10/08 21:20:00, 3.2,15.7
2023/10/08 21:30:00, 3.1,15.4
2023/10/08 21:40:00, 3.1,15.0
2023/10/08 21:50:00, 3.2,14.9
2023/10/08 22:00:00, 3.2,14.8
2023/10/08 22:10:00, 3.2,14.9
2023/10/08 22:20:00, 3.1,14.9
2023/10/08 22:30:00, 3.1,14.6
2023/10/08 22:40:00, 3.1,14.6
2023/10/08 22:50:00, 3.1,14.3
2023/10/08 23:00:00, 3.1,14.3
2023/10/08 23:10:00, 3.1,14.4
2023/10/08 23:20:00, 3.1,14.5
2023/10/08 23:30:00, 3.1,14.2
2023/10/08 23:40:00, 3.0,14.3
2023/10/08 23:50:00, 3.0,14.2
